Tracking 21473 objects as of 20-Sep-2020
HD Live streaming from Space Station
objects crossing your sky now

METEOR M2-2

Track METEOR M2-2 now!
10-day predictions
METEOR M2-2 is classified as:


NORAD ID: 44387
Int'l Code: 2019-038A
Perigee: 819.3 km
Apogee: 820.9 km
Inclination: 98.6 °
Period: 101.1 minutes
Semi major axis: 7191 km
RCS: Unknown
Launch date: July 5, 2019
Source: Commonwealth of Independent States (former USSR) (CIS)
Launch site: VOSTOCHNY COSMODROME (VOSTO)

Uplink (MHz):
Downlink (MHz): 137.100/137.900
Beacon (MHz):
Mode: 72Kbps QPSK
Call sign:
Status:

aabbcc
Your satellite tracking list
Your tracking list is empty




NASA's NSSDC Master Catalog

Two Line Element Set (TLE):
1 44387U 19038A   20264.52639922 -.00000033  00000-0  47194-5 0  9996
2 44387  98.6297 222.7258 0001132  14.0854 346.0357 14.23681024 63060
Source of the keplerian elements: AFSPC